Location: Choisy
(48.7685°N, 2.4187°E)
Time: 23:41:11
(UTC+00:00)

ATLAS 3B R/B - Visible Passes

Search period start: 30 November 2023 00:00
Search period end: 10 December 2023 00:00
Orbit: 954 x 1241 km, 63.8° (Epoch: 27 October)

Date Brightness Start Highest point End Pass type
(mag) Time Alt. Az. Time Alt. Az. Time Alt. Az.
30 Nov 4.6 03:19:25 14° SSE 03:23:41 25° ESE 03:29:23 10° ENE visible
30 Nov 2.8 05:06:47 11° SW 05:13:34 86° NW 05:21:09 10° NE visible
01 Dec 5.1 02:35:03 13° ESE 02:36:56 15° ESE 02:40:41 10° ENE visible
01 Dec 3.1 04:22:23 29° SSW 04:26:14 67° ESE 04:33:39 10° NE visible
01 Dec 3.3 06:10:40 10° WSW 06:17:27 43° NNW 06:24:40 10° NE visible
02 Dec 3.6 03:37:38 40° SSE 03:39:05 44° ESE 03:46:02 10° NE visible
02 Dec 2.9 05:24:57 22° WSW 05:29:43 57° NW 05:37:12 10° NE visible
03 Dec 4.3 02:52:40 28° ESE 02:52:40 28° ESE 02:58:11 10° NE visible
03 Dec 2.7 04:39:57 49° WSW 04:42:09 78° NW 04:49:45 10° NE visible
03 Dec 3.7 06:27:38 10° W 06:34:05 33° NNW 06:40:53 10° NE visible
04 Dec 5.1 02:07:29 15° E 02:07:29 15° E 02:09:48 10° ENE visible
04 Dec 2.8 03:54:46 75° SE 03:54:46 75° SE 04:02:17 10° NE visible
04 Dec 3.4 05:42:04 22° W 05:46:09 40° NNW 05:53:18 10° NE visible
05 Dec 3.8 03:09:28 41° ENE 03:09:28 41° ENE 03:14:42 10° NE visible
05 Dec 3.0 04:56:45 44° WNW 04:58:23 52° NW 05:05:48 10° NE visible
05 Dec 4.0 06:44:45 10° WNW 06:50:55 27° NNW 06:57:20 10° NE visible
06 Dec 4.8 02:24:03 22° ENE 02:24:03 22° ENE 02:26:56 10° NE visible
06 Dec 2.8 04:11:19 68° NNW 04:11:19 68° NNW 04:18:21 10° NE visible
06 Dec 3.8 05:58:36 18° WNW 06:02:51 31° NNW 06:09:33 10° NE visible
07 Dec 5.4 01:38:33 11° ENE 01:38:33 11° ENE 01:38:47 10° ENE visible
07 Dec 3.6 03:25:49 46° NE 03:25:49 46° NE 03:30:53 10° NE visible
07 Dec 3.4 05:13:05 33° WNW 05:14:54 37° NNW 05:21:55 10° NE visible
08 Dec 4.5 02:40:14 26° NE 02:40:14 26° NE 02:43:21 10° NE visible
08 Dec 3.2 04:27:30 47° NNW 04:27:30 47° NNW 04:34:24 10° NE visible
08 Dec 4.0 06:14:46 14° WNW 06:19:43 27° N 06:26:05 10° NE visible
09 Dec 5.2 01:54:37 14° NE 01:54:37 14° NE 01:55:40 10° NE visible
09 Dec 3.6 03:41:52 43° NNE 03:41:52 43° NNE 03:46:57 10° NE visible
09 Dec 3.8 05:29:08 25° NW 05:31:38 30° NNW 05:38:14 10° NE visible
